カタログに戻る

STARLINK-33712

運用中通信VLEO
NORAD 63797·PAYLOAD·🇺🇸 United States

打ち上げ May 2, 2025 から Cape Canaveral Space Force Station

Loading…

次のパス (今後24時間)

TLE

最新Source: CelesTrak SupGP

元期: Sep 14, 2026, 22:28 UTC

1 63797C 25091Y   26257.93659722  .00057039  00000+0  20664-2 0  2574
2 63797  43.0039  67.3988 0001736 275.5780  87.3398 15.27542768    11

AllMySatでSTARLINK-33712をリアルタイム追跡

Download on the App Store